Location: Boise
(43.6140°N, 116.2030°W)
Time: 08:53:06
(UTC-07:00)

Daily predictions for brighter satellites

Satellite Brightness Start Highest point End
(mag) Time Altitude Azimuth Time Altitude Azimuth Time Altitude Azimuth
CZ-4 R/B 3.8 18:46:12 10° SSW 18:49:50 30° W 18:53:32 10° NNW
Cosmos 1992 Rocket 4.0 18:47:10 10° NNW 18:52:23 65° ENE 18:57:34 10° SSE
NOSS 2-2 (C) 3.6 18:49:21 10° SSW 18:53:18 59° ESE 18:57:52 10° NE
ERBS 2.8 18:50:18 10° NW 18:53:46 66° SW 18:57:10 10° SE
Cosmos 407 Rocket 4.4 18:51:30 10° SSE 18:55:53 28° E 19:00:20 10° NE
COSMO-SKYMED 1 2.6 18:52:25 10° NNE 18:56:47 83° ESE 19:01:07 10° SSW
Okean 2 Rocket 3.2 18:54:23 10° S 18:58:44 56° E 19:03:06 10° NNE
BREEZE-M DEB (TANK) 3.1 18:58:18 10° W 19:00:34 65° N 19:08:43 10° ENE
Thor Agena Rocket 4.2 18:56:04 10° N 19:01:03 60° WNW 19:06:00 10° SSW
ATLAS CENTAUR R/B 3.5 18:58:29 10° WSW 19:02:21 26° NW 19:06:01 10° NNE
FREGAT/IRIS 3.3 18:59:58 10° SE 19:02:47 34° ENE 19:05:38 10° N
BREEZE-M DEB (TANK) 2.5 19:01:43 10° NW 19:03:47 34° NNE 19:06:55 11° E
Cosmos 2360 Rocket 3.2 19:05:13 10° N 19:09:57 26° NE 19:14:35 10° ESE
Cosmos 1980 Rocket 3.2 19:05:28 10° NW 19:10:59 53° WSW 19:16:28 10° S
DMSP B5D1-3 4.5 19:08:27 10° NNE 19:13:37 83° ESE 19:18:46 10° SSW
Cosmos 2151 Rocket 4.0 19:12:45 10° SSE 19:16:58 41° E 19:21:14 10° NNE
METEOR-M 4.1 19:11:56 10° SSE 19:17:16 81° ENE 19:22:38 10° NNW
Cosmos 1190 Rocket 4.1 19:14:22 10° S 19:19:22 52° ESE 19:24:25 10° NNE
SJ-6B 2.8 19:15:57 10° SSE 19:19:58 64° ENE 19:23:54 10° N
Cosmos 1745 Rocket 4.0 19:13:48 10° S 19:20:08 88° ESE 19:26:28 10° N
Meteor 1-18 Rocket 4.1 19:14:39 10° N 19:20:14 79° E 19:25:49 10° SSE
NOAA 12 4.1 19:15:41 10° SSE 19:20:59 89° ENE 19:26:22 10° NNW
ALOS 2.5 19:17:24 10° SE 19:21:51 47° ENE 19:26:20 10° N
BREEZE-M DEB (TANK) 3.8 19:12:12 10° WNW 19:23:04 76° SSW 19:26:10 11° SE
GEOS 3 Rocket 3.7 19:18:31 10° NE 19:23:42 60° SE 19:28:54 10° SSW
Cosmos 1238 Rocket 3.4 19:23:26 10° NNE 19:25:50 21° ENE 19:25:50 21° ENE
Okean 1 Rocket 4.2 19:25:56 10° SE 19:29:20 22° E 19:32:46 10° NE
Cosmos 1461 2.9 19:25:42 10° NNW 19:29:38 56° NE 19:33:03 14° SE
Cosmos 2333 Rocket 4.2 19:29:28 10° NNE 19:31:04 11° NE 19:32:10 11° NE
Spot 2 Rocket 3.7 19:26:32 10° SE 19:31:19 46° ENE 19:36:10 10° N
Cosmos 1386 Rocket 4.4 19:28:34 10° S 19:34:42 87° E 19:40:47 10° N
FengYun 1-2 T 4.2 19:29:29 10° SSE 19:34:52 63° ENE 19:40:18 10° N
Cosmos 2292 Rocket 4.1 19:33:12 10° S 19:37:51 62° E 19:44:12 10° NNE
Cosmos 1633 3.2 19:34:43 10° SSE 19:38:03 33° E 19:41:24 10° NNE
HJ-1C 3.3 19:35:52 10° SSE 19:39:13 66° ENE 19:42:34 10° N
Helios 1A 3.8 19:38:43 24° ESE 19:40:07 29° ENE 19:43:45 10° N
SL-16 R/B 2.3 19:35:46 10° NNW 19:41:29 82° WSW 19:47:08 10° SSE
Envisat 4.1 19:47:39 23° ENE 19:47:40 23° ENE 19:51:33 10° NNE
Cosmos 1954 Rocket 4.2 19:43:14 10° S 19:48:07 45° ESE 19:53:05 10° NNE
Okean 1 3.4 19:44:13 10° N 19:48:17 82° W 19:52:20 10° S
Meteor 1-20 Rocket 4.4 19:42:32 10° SSW 19:48:21 79° W 19:54:14 10° N
Cosmos 1340 2.6 19:46:07 10° N 19:49:53 58° ENE 19:53:13 13° SSE
Meteor 1-13 Rocket 4.2 19:44:32 10° N 19:50:01 60° ENE 19:55:32 10° SSE
Tiangong 2 1.5 19:51:20 10° W 19:54:20 51° SSW 19:54:54 43° SSE
CENTAUR R/B 4.3 19:47:25 10° NW 19:54:46 43° WSW 20:02:28 10° S
CZ-2D R/B 3.2 19:58:00 34° SE 19:59:22 56° ENE 20:03:07 10° N
Cosmos 2322 Rocket 2.9 19:55:17 10° NNW 20:00:45 56° WSW 20:06:13 10° S
Cosmos 1536 Rocket 3.9 20:00:02 10° NNW 20:04:27 68° W 20:08:54 10° S
Cosmos 1025 Rocket 4.3 20:01:12 10° N 20:03:36 25° NE 20:03:36 25° NE
Helios 1B rocket 4.0 20:09:41 22° SSE 20:09:41 22° SSE 20:11:19 10° S
Resurs 01 Rocket 1.7 20:03:23 10° S 20:07:47 76° WSW 20:12:13 10° NNW
Cosmos 2322 3.7 20:04:27 10° NNW 20:10:09 63° ENE 20:12:40 33° SE
H-2A R/B 2.8 20:09:03 12° S 20:12:28 74° WSW 20:16:13 10° NNW
Cosmos 1818 3.5 20:07:08 10° SSW 20:12:35 84° ESE 20:16:11 22° NE
Meteor 2-4 Rocket 3.5 20:14:14 10° N 20:19:51 67° ENE 20:22:25 32° SSE
COSMOS 2428 3.1 20:15:30 10° NNW 20:20:54 42° ENE 20:21:04 42° ENE
Cosmos 2237 4.3 20:16:10 10° NNW 20:21:47 53° ENE 20:22:35 49° E
Cosmos 2181 Rocket 4.1 20:15:47 10° N 20:21:59 76° W 20:28:16 10° S
Meteor 1-11 Rocket 3.7 20:19:29 10° S 20:25:14 89° ESE 20:31:10 10° N
DELTA 2 R/B (1) 4.0 20:20:51 10° W 20:26:17 52° S 20:27:32 43° SSE
Cosmos 2327 Rocket 4.5 20:20:55 10° SSE 20:26:55 56° E 20:33:03 10° NNE
Cosmos 1570 Rocket 3.9 20:30:11 10° NNW 20:35:19 68° ENE 20:35:19 68° ENE
Cosmos 2237 Rocket 3.9 20:31:13 10° N 20:33:59 19° NNE 20:33:59 19° NNE
Cosmos 1023 Rocket 4.4 20:34:03 10° SSW 20:39:08 83° WNW 20:41:28 33° NNE
SL-08 ROCKET BODY 4.3 20:33:16 10° S 20:39:25 82° E 20:45:38 10° N
Cosmos 1300 Rocket 4.4 20:35:31 10° SSW 20:39:47 51° WNW 20:44:07 10° N
Cosmos 2184 Rocket 3.8 20:38:03 10° S 20:44:22 78° E 20:50:40 10° N
Cosmos 2074 Rocket 3.8 20:39:36 10° S 20:45:50 83° E 20:52:08 10° N
Cosmos 2360 Rocket 2.8 20:48:46 10° NNW 20:54:15 53° WSW 20:56:26 34° SSW
Cosmos 2208 Rocket 4.1 20:51:38 10° NNW 20:56:40 75° NNW 20:56:40 75° NNW
Cosmos 2219 Rocket 3.2 20:53:24 10° NNW 20:56:50 33° N 20:56:50 33° N
SL-16 R/B 4.4 21:02:06 10° N 21:03:09 13° NNE 21:03:09 13° NNE
Cosmos 2285 Rocket 4.0 21:01:07 10° NNW 21:06:55 71° NNE 21:06:55 71° NNE
Cosmos 1140 Rocket 4.3 21:03:05 10° SW 21:08:01 47° WNW 21:09:54 33° NNW
Cosmos 2333 Rocket 3.5 21:11:08 10° NNW 21:14:12 31° N 21:14:12 31° N
Envisat 4.3 21:27:51 37° NW 21:27:51 37° NW 21:31:17 10° NNW
USA 229 DEB 4.2 21:39:38 10° NW 21:45:19 58° WNW 21:45:19 58° WNW
USA 229 4.2 21:39:44 10° NW 21:45:24 58° WNW 21:45:24 58° WNW
ATLAS 2AS CENTAUR R/B 4.5 21:58:17 10° NNW 22:03:27 26° N 22:03:27 26° N
